Location: Macksville High School
(37.9611°N, 99.9654°W)
Time: 20:02:33
(UTC+00:00)

BREEZE-M DEB (TANK) - Pass Details

Date: 17 January 2021
Orbit: 326 x 16273 km, 49.5° (Epoch: 26 February)

Event Time Altitude Azimuth Distance (km) Brightness Sun altitude
Exits shadow 12:48:51 12° 306° (NW) 4,086 6.1 -12.7°
Maximum altitude 12:56:36 56° 22° (NNE) 872 3.3 -11.3°
Drops below altitude 10° 12:59:38 10° 104° (ESE) 1,604 6.3 -10.7°
Sets 13:01:00 0° 109° (ESE) 2,255 7.8 -10.5°
